CLX568 EHAM-ELLX

Flight info

Callsign CLX568
Flight time 0h 52m
Altitude 23000
Route LOPIK N852 LNO
Aircraft B748/H-SDE3FGHIM1M2RWXY/LB1

Departure

Time 2026-04-28 17:34
Airport Amsterdam Airport Schiphol (EHAM)

Arrival

Time 2026-04-28 18:26
Airport Luxembourg-Findel International Airport (ELLX)
Time Latitude Longitude Altitude Speed Heading
2026-04-28 17:01 52.29583 4.76387 9 ft 0 kts 148°
2026-04-28 17:01 52.29515 4.76209 9 ft 0 kts 148°
2026-04-28 17:15 52.29517 4.76206 9 ft 2 kts 148°
2026-04-28 17:16 52.29531 4.76192 11 ft 2 kts 151°
2026-04-28 17:16 52.29546 4.76180 11 ft 2 kts 154°
2026-04-28 17:16 52.29561 4.76169 12 ft 2 kts 159°
2026-04-28 17:16 52.29576 4.76161 11 ft 2 kts 169°
2026-04-28 17:17 52.29593 4.76159 11 ft 2 kts 191°
2026-04-28 17:17 52.29607 4.76167 11 ft 2 kts 223°
2026-04-28 17:17 52.29616 4.76183 13 ft 1 kts 239°
2026-04-28 17:17 52.29617 4.76186 13 ft 0 kts 239°
2026-04-28 17:23 52.29617 4.76185 13 ft 1 kts 239°
2026-04-28 17:23 52.29607 4.76160 11 ft 5 kts 239°
2026-04-28 17:23 52.29607 4.76159 11 ft 0 kts 239°
2026-04-28 17:24 52.29603 4.76147 12 ft 4 kts 238°
2026-04-28 17:24 52.29573 4.76068 9 ft 11 kts 238°
2026-04-28 17:24 52.29531 4.75954 9 ft 13 kts 243°
2026-04-28 17:25 52.29499 4.75816 9 ft 14 kts 249°
2026-04-28 17:25 52.29443 4.75611 9 ft 1 kts 269°
2026-04-28 17:25 52.29443 4.75585 9 ft 0 kts 275°
2026-04-28 17:26 52.29443 4.75584 9 ft 0 kts 275°
2026-04-28 17:26 52.29447 4.75572 9 ft 4 kts 296°
2026-04-28 17:26 52.29493 4.75495 8 ft 15 kts 326°
2026-04-28 17:27 52.29603 4.75384 9 ft 20 kts 328°
2026-04-28 17:27 52.29724 4.75284 9 ft 19 kts 351°
2026-04-28 17:27 52.29837 4.75205 9 ft 17 kts 312°
2026-04-28 17:27 52.29919 4.75050 10 ft 19 kts 310°
2026-04-28 17:28 52.30005 4.74896 9 ft 18 kts 312°
2026-04-28 17:28 52.30152 4.74621 25 ft 13 kts 311°
2026-04-28 17:28 52.30217 4.74498 23 ft 15 kts 310°
2026-04-28 17:29 52.30292 4.74357 22 ft 19 kts 311°
2026-04-28 17:29 52.30398 4.74208 9 ft 17 kts 340°
2026-04-28 17:29 52.30478 4.74198 9 ft 14 kts
2026-04-28 17:30 52.30731 4.74221 9 ft 23 kts
2026-04-28 17:30 52.31031 4.74251 9 ft 26 kts
2026-04-28 17:30 52.31169 4.74262 9 ft 25 kts
2026-04-28 17:31 52.31333 4.74277 9 ft 19 kts
2026-04-28 17:31 52.31394 4.74380 9 ft 8 kts 88°
2026-04-28 17:32 52.31427 4.74651 9 ft 13 kts 38°
2026-04-28 17:32 52.31501 4.74668 9 ft 11 kts 358°
2026-04-28 17:32 52.31584 4.74670 9 ft 12 kts
2026-04-28 17:32 52.31648 4.74729 10 ft 11 kts 55°
2026-04-28 17:33 52.31669 4.74849 8 ft 0 kts 85°
2026-04-28 17:33 52.31670 4.74854 8 ft 2 kts 85°
2026-04-28 17:33 52.31676 4.75000 6 ft 41 kts 87°
2026-04-28 17:33 52.31695 4.75547 7 ft 102 kts 86°
2026-04-28 17:34 52.31749 4.77652 317 ft 157 kts 83°
2026-04-28 17:34 52.31799 4.79481 1059 ft 162 kts 88°
2026-04-28 17:34 52.31406 4.81244 2008 ft 182 kts 124°
2026-04-28 17:34 52.30253 4.82328 2878 ft 207 kts 158°
2026-04-28 17:35 52.28838 4.82826 3823 ft 214 kts 157°
2026-04-28 17:35 52.27410 4.83639 4915 ft 220 kts 153°
2026-04-28 17:35 52.25972 4.84609 6223 ft 227 kts 150°
2026-04-28 17:35 52.24656 4.86091 7326 ft 236 kts 137°
2026-04-28 17:36 52.23337 4.87859 8282 ft 254 kts 137°
2026-04-28 17:36 52.21920 4.89732 9321 ft 268 kts 139°
2026-04-28 17:36 52.20446 4.91629 10472 ft 274 kts 138°
2026-04-28 17:36 52.18909 4.93616 11305 ft 290 kts 137°
2026-04-28 17:37 52.17237 4.95642 12070 ft 311 kts 148°
2026-04-28 17:37 52.15118 4.96859 12764 ft 337 kts 163°
2026-04-28 17:37 52.12748 4.97658 13441 ft 358 kts 165°
2026-04-28 17:37 52.10260 4.98608 14054 ft 376 kts 162°
2026-04-28 17:38 52.07737 4.99954 14868 ft 386 kts 158°
2026-04-28 17:38 52.05179 5.01413 15758 ft 394 kts 159°
2026-04-28 17:38 52.02535 5.02751 16738 ft 401 kts 160°
2026-04-28 17:38 51.99877 5.04042 18036 ft 397 kts 161°
2026-04-28 17:39 51.97250 5.05364 19210 ft 395 kts 159°
2026-04-28 17:39 51.94636 5.06728 20279 ft 393 kts 160°
2026-04-28 17:39 51.89484 5.09334 22569 ft 388 kts 159°
2026-04-28 17:40 51.86888 5.10656 23189 ft 395 kts 161°
2026-04-28 17:40 51.84270 5.11984 23198 ft 389 kts 160°
2026-04-28 17:40 51.81682 5.13291 23200 ft 390 kts 159°
2026-04-28 17:40 51.79099 5.14595 23197 ft 389 kts 159°
2026-04-28 17:41 51.76511 5.15907 23199 ft 389 kts 161°
2026-04-28 17:41 51.73921 5.17213 23197 ft 390 kts 161°
2026-04-28 17:41 51.71330 5.18508 23201 ft 390 kts 159°
2026-04-28 17:41 51.68741 5.19810 23210 ft 388 kts 160°
2026-04-28 17:42 51.66182 5.21103 23207 ft 389 kts 161°
2026-04-28 17:42 51.64470 5.21962 23207 ft 387 kts 161°
2026-04-28 17:42 51.61027 5.23678 23189 ft 387 kts 160°
2026-04-28 17:42 51.58498 5.24945 23189 ft 388 kts 160°
2026-04-28 17:43 51.55939 5.26225 23190 ft 385 kts 160°
2026-04-28 17:43 51.53367 5.27516 23191 ft 388 kts 161°
2026-04-28 17:43 51.50795 5.28789 23192 ft 385 kts 160°
2026-04-28 17:43 51.48221 5.30072 23191 ft 393 kts 162°
2026-04-28 17:44 51.45637 5.31358 23187 ft 387 kts 161°
2026-04-28 17:44 51.43071 5.32636 23189 ft 382 kts 161°
2026-04-28 17:44 51.40598 5.33927 23174 ft 365 kts 161°
2026-04-28 17:44 51.38258 5.35203 23168 ft 348 kts 160°
2026-04-28 17:45 51.35984 5.36420 23175 ft 344 kts 161°
2026-04-28 17:45 51.33707 5.37614 23178 ft 346 kts 161°
2026-04-28 17:45 51.31421 5.38811 23175 ft 345 kts 161°
2026-04-28 17:45 51.29122 5.40026 23174 ft 347 kts 161°
2026-04-28 17:46 51.26830 5.41237 23170 ft 347 kts 161°
2026-04-28 17:46 51.24534 5.42443 23171 ft 348 kts 161°
2026-04-28 17:46 51.22237 5.43646 23168 ft 346 kts 161°
2026-04-28 17:46 51.19951 5.44849 23173 ft 346 kts 161°
2026-04-28 17:47 51.17693 5.46034 23164 ft 344 kts 161°
2026-04-28 17:47 51.15408 5.47229 23165 ft 343 kts 161°
2026-04-28 17:47 51.13156 5.48406 23163 ft 343 kts 161°
2026-04-28 17:47 51.11622 5.49208 23168 ft 345 kts 161°
2026-04-28 17:48 51.08629 5.50772 23159 ft 342 kts 161°
2026-04-28 17:48 51.06362 5.51955 23159 ft 343 kts 161°
2026-04-28 17:48 51.04095 5.53136 23160 ft 342 kts 161°
2026-04-28 17:48 51.01815 5.54323 23159 ft 345 kts 161°
2026-04-28 17:49 50.99548 5.55501 23154 ft 343 kts 161°
2026-04-28 17:49 50.97254 5.56693 23159 ft 344 kts 161°
2026-04-28 17:49 50.94980 5.57872 23162 ft 343 kts 161°
2026-04-28 17:49 50.92713 5.59047 23159 ft 343 kts 161°
2026-04-28 17:50 50.90478 5.60206 23046 ft 342 kts 161°
2026-04-28 17:50 50.88192 5.61388 22605 ft 340 kts 161°
2026-04-28 17:50 50.85986 5.62527 22196 ft 337 kts 161°
2026-04-28 17:50 50.83766 5.63674 21786 ft 333 kts 161°
2026-04-28 17:51 50.81541 5.64821 21369 ft 339 kts 162°
2026-04-28 17:51 50.79300 5.65976 20912 ft 338 kts 162°
2026-04-28 17:51 50.77060 5.67128 20457 ft 337 kts 162°
2026-04-28 17:51 50.74827 5.68277 20011 ft 336 kts 162°
2026-04-28 17:52 50.72603 5.69420 19565 ft 335 kts 162°
2026-04-28 17:52 50.70386 5.70556 19144 ft 334 kts 161°
2026-04-28 17:52 50.66008 5.72799 18268 ft 331 kts 161°
2026-04-28 17:53 50.63787 5.73936 17782 ft 330 kts 161°
2026-04-28 17:53 50.61609 5.75050 17305 ft 328 kts 161°
2026-04-28 17:53 50.59471 5.76142 16845 ft 327 kts 161°
2026-04-28 17:53 50.57309 5.77247 16370 ft 326 kts 161°
2026-04-28 17:54 50.55158 5.78342 15927 ft 325 kts 161°
2026-04-28 17:54 50.53017 5.79430 15477 ft 323 kts 161°
2026-04-28 17:54 50.50878 5.80517 15149 ft 318 kts 161°
2026-04-28 17:54 50.48823 5.81563 15126 ft 303 kts 161°
2026-04-28 17:55 50.46807 5.82586 15120 ft 303 kts 161°
2026-04-28 17:55 50.44782 5.83617 15121 ft 308 kts 161°
2026-04-28 17:55 50.42743 5.84637 15119 ft 308 kts 161°
2026-04-28 17:55 50.40703 5.85649 15121 ft 308 kts 162°
2026-04-28 17:56 50.38660 5.86660 15120 ft 307 kts 162°
2026-04-28 17:56 50.36624 5.87663 15119 ft 305 kts 161°
2026-04-28 17:56 50.34588 5.88654 14963 ft 312 kts 161°
2026-04-28 17:56 50.32516 5.89663 14504 ft 313 kts 162°
2026-04-28 17:57 50.30432 5.90666 14032 ft 314 kts 161°
2026-04-28 17:57 50.28340 5.91654 13500 ft 311 kts 161°
2026-04-28 17:57 50.26334 5.92599 12918 ft 297 kts 162°
2026-04-28 17:57 50.24405 5.93516 12402 ft 296 kts 162°
2026-04-28 17:58 50.22393 5.94223 11933 ft 299 kts 173°
2026-04-28 17:58 50.20310 5.94237 11442 ft 301 kts 181°
2026-04-28 17:58 50.18213 5.94030 10970 ft 301 kts 182°
2026-04-28 17:58 50.16203 5.93771 10467 ft 283 kts 183°
2026-04-28 17:59 50.14271 5.93502 10073 ft 276 kts 184°
2026-04-28 17:59 50.12338 5.93231 9662 ft 279 kts 183°
2026-04-28 17:59 50.10397 5.92977 9255 ft 277 kts 182°
2026-04-28 17:59 50.08486 5.92710 8847 ft 276 kts 182°
2026-04-28 18:00 50.06582 5.92416 8448 ft 278 kts 183°
2026-04-28 18:00 50.04679 5.92116 8068 ft 274 kts 182°
2026-04-28 18:00 50.02813 5.91788 7695 ft 274 kts 182°
2026-04-28 18:00 50.00936 5.91452 7325 ft 273 kts 182°
2026-04-28 18:01 49.99061 5.91130 6960 ft 272 kts 183°
2026-04-28 18:01 49.97201 5.90796 6583 ft 269 kts 184°
2026-04-28 18:01 49.95335 5.90467 6192 ft 267 kts 182°
2026-04-28 18:01 49.93475 5.90142 5819 ft 272 kts 183°
2026-04-28 18:02 49.91597 5.89811 5425 ft 273 kts 182°
2026-04-28 18:02 49.89721 5.89461 5055 ft 273 kts 184°
2026-04-28 18:02 49.87861 5.89146 4692 ft 275 kts 182°
2026-04-28 18:02 49.86007 5.88790 4313 ft 273 kts 182°
2026-04-28 18:03 49.84181 5.88420 3995 ft 254 kts 183°
2026-04-28 18:03 49.82488 5.88082 3988 ft 244 kts 182°
2026-04-28 18:03 49.80834 5.87762 3995 ft 245 kts 182°
2026-04-28 18:03 49.79162 5.87422 3988 ft 239 kts 183°
2026-04-28 18:04 49.77521 5.87084 3993 ft 239 kts 183°
2026-04-28 18:04 49.75883 5.86749 3993 ft 245 kts 182°
2026-04-28 18:04 49.74219 5.86402 3988 ft 237 kts 182°
2026-04-28 18:04 49.72571 5.86046 3986 ft 236 kts 183°
2026-04-28 18:05 49.70935 5.85712 3982 ft 238 kts 182°
2026-04-28 18:05 49.69851 5.85498 3981 ft 238 kts 182°
2026-04-28 18:05 49.67657 5.85118 3854 ft 236 kts 172°
2026-04-28 18:05 49.66121 5.85652 3660 ft 226 kts 155°
2026-04-28 18:06 49.64614 5.86514 3414 ft 230 kts 153°
2026-04-28 18:06 49.63138 5.87430 3174 ft 234 kts 153°
2026-04-28 18:06 49.61664 5.88373 2966 ft 218 kts 153°
2026-04-28 18:06 49.60353 5.89197 2968 ft 192 kts 153°
2026-04-28 18:07 49.59143 5.89936 2982 ft 183 kts 153°
2026-04-28 18:07 49.57955 5.90652 2985 ft 183 kts 153°
2026-04-28 18:07 49.56790 5.91417 2967 ft 178 kts 141°
2026-04-28 18:07 49.56112 5.92884 2983 ft 171 kts 102°
2026-04-28 18:08 49.55956 5.94689 3012 ft 173 kts 94°
2026-04-28 18:08 49.55877 5.96506 3003 ft 175 kts 93°
2026-04-28 18:08 49.55801 5.98336 3004 ft 172 kts 92°
2026-04-28 18:08 49.55718 6.00134 2996 ft 171 kts 93°
2026-04-28 18:09 49.55643 6.01907 2999 ft 167 kts 88°
2026-04-28 18:09 49.56070 6.03559 3017 ft 174 kts 59°
2026-04-28 18:09 49.56679 6.05150 2978 ft 165 kts 60°
2026-04-28 18:09 49.57224 6.06579 2971 ft 146 kts 63°
2026-04-28 18:10 49.57706 6.07898 2779 ft 138 kts 62°
2026-04-28 18:10 49.58183 6.09186 2612 ft 140 kts 62°
2026-04-28 18:10 49.58649 6.10430 2444 ft 145 kts 62°
2026-04-28 18:10 49.59131 6.11727 2300 ft 135 kts 62°
2026-04-28 18:11 49.59607 6.13014 2142 ft 140 kts 62°
2026-04-28 18:11 49.60086 6.14257 1912 ft 141 kts 59°
2026-04-28 18:11 49.60578 6.15519 1736 ft 132 kts 63°
2026-04-28 18:11 49.61038 6.16820 1565 ft 142 kts 62°
2026-04-28 18:12 49.61479 6.17987 1374 ft 138 kts 62°
2026-04-28 18:12 49.62002 6.19357 1908 ft 160 kts 59°
2026-04-28 18:12 49.62642 6.20942 2933 ft 193 kts 61°
2026-04-28 18:12 49.63381 6.22910 3868 ft 234 kts 63°
2026-04-28 18:13 49.64121 6.25039 4098 ft 213 kts 61°
2026-04-28 18:13 49.64863 6.26920 4079 ft 200 kts 60°
2026-04-28 18:13 49.65606 6.28704 4085 ft 198 kts 59°
2026-04-28 18:13 49.66406 6.30396 4073 ft 199 kts 45°
2026-04-28 18:14 49.67689 6.31200 4082 ft 208 kts 10°
2026-04-28 18:14 49.69112 6.30694 4075 ft 217 kts 335°
2026-04-28 18:14 49.70165 6.29004 4075 ft 225 kts 301°
2026-04-28 18:14 49.70497 6.26611 4075 ft 230 kts 267°
2026-04-28 18:15 49.70167 6.24145 4098 ft 234 kts 254°
2026-04-28 18:15 49.69721 6.21747 4062 ft 236 kts 252°
2026-04-28 18:15 49.69270 6.19329 4000 ft 234 kts 252°
2026-04-28 18:15 49.68829 6.16933 3992 ft 227 kts 253°
2026-04-28 18:16 49.68372 6.14575 3996 ft 224 kts 253°
2026-04-28 18:16 49.68064 6.12992 4006 ft 240 kts 252°
2026-04-28 18:16 49.67603 6.10573 3998 ft 235 kts 252°
2026-04-28 18:16 49.67151 6.08203 3994 ft 231 kts 252°
2026-04-28 18:17 49.66697 6.05819 4001 ft 230 kts 253°
2026-04-28 18:17 49.66237 6.03425 3990 ft 228 kts 253°
2026-04-28 18:17 49.65774 6.01027 3995 ft 226 kts 253°
2026-04-28 18:17 49.65306 5.98620 3994 ft 232 kts 253°
2026-04-28 18:18 49.64828 5.96223 3996 ft 236 kts 252°
2026-04-28 18:18 49.64368 5.93878 3989 ft 231 kts 253°
2026-04-28 18:18 49.63904 5.91504 3989 ft 231 kts 252°
2026-04-28 18:18 49.63589 5.89872 3988 ft 234 kts 253°
2026-04-28 18:19 49.62748 5.86870 3910 ft 227 kts 228°
2026-04-28 18:19 49.61476 5.85514 3740 ft 222 kts 193°
2026-04-28 18:19 49.60008 5.85442 3568 ft 213 kts 161°
2026-04-28 18:19 49.58644 5.86150 3437 ft 209 kts 154°
2026-04-28 18:20 49.57309 5.86950 3247 ft 206 kts 153°
2026-04-28 18:20 49.56021 5.87826 3015 ft 198 kts 140°
2026-04-28 18:20 49.55254 5.89457 2977 ft 189 kts 104°
2026-04-28 18:20 49.55053 5.91459 3006 ft 189 kts 94°
2026-04-28 18:21 49.54953 5.93477 3000 ft 193 kts 93°
2026-04-28 18:21 49.54870 5.95533 2979 ft 196 kts 93°
2026-04-28 18:21 49.54792 5.97525 2971 ft 180 kts 92°
2026-04-28 18:21 49.54722 5.99380 2970 ft 167 kts 88°
2026-04-28 18:22 49.55155 6.01028 3003 ft 170 kts 60°
2026-04-28 18:22 49.55730 6.02622 2982 ft 176 kts 63°
2026-04-28 18:22 49.56319 6.04169 2968 ft 157 kts 62°
2026-04-28 18:22 49.56860 6.05617 2964 ft 150 kts 62°
2026-04-28 18:23 49.57379 6.07010 2905 ft 145 kts 62°
2026-04-28 18:23 49.57886 6.08378 2761 ft 151 kts 62°
2026-04-28 18:23 49.58391 6.09734 2604 ft 157 kts 62°
2026-04-28 18:23 49.58907 6.11114 2395 ft 141 kts 62°
2026-04-28 18:24 49.59394 6.12402 2222 ft 148 kts 62°
2026-04-28 18:24 49.59743 6.13345 2080 ft 151 kts 61°
2026-04-28 18:24 49.60266 6.14755 1788 ft 151 kts 61°
2026-04-28 18:24 49.60926 6.16527 1581 ft 141 kts 62°
2026-04-28 18:25 49.61424 6.17846 1373 ft 141 kts 62°
2026-04-28 18:25 49.61890 6.19115 1226 ft 130 kts 61°
2026-04-28 18:25 49.62284 6.20186 1222 ft 99 kts 60°
2026-04-28 18:26 49.62776 6.21513 1226 ft 58 kts 60°
2026-04-28 18:26 49.62970 6.22037 1229 ft 43 kts 60°
2026-04-28 18:26 49.63044 6.22121 1230 ft 9 kts 352°
2026-04-28 18:26 49.63143 6.22052 1212 ft 20 kts 338°
2026-04-28 18:27 49.63198 6.22069 1209 ft 6 kts 47°
2026-04-28 18:27 49.63231 6.22149 1209 ft 12 kts 62°
2026-04-28 18:27 49.63269 6.22270 1209 ft 13 kts 64°
2026-04-28 18:27 49.63313 6.22403 1209 ft 15 kts 62°
2026-04-28 18:28 49.63360 6.22546 1209 ft 17 kts 63°
2026-04-28 18:28 49.63425 6.22728 1210 ft 21 kts 59°
2026-04-28 18:28 49.63488 6.22839 1209 ft 5 kts
2026-04-28 18:28 49.63543 6.22821 1207 ft 12 kts 339°
2026-04-28 18:29 49.63619 6.22759 1206 ft 8 kts 335°
2026-04-28 18:29 49.63637 6.22761 1206 ft 2 kts 12°
2026-04-28 18:29 49.63654 6.22777 1206 ft 2 kts 47°
2026-04-28 18:29 49.63673 6.22822 1206 ft 7 kts 58°
2026-04-28 18:30 49.63691 6.22867 1206 ft 0 kts 59°